Temp
54 53 53 53 50 51 51 51 49 51 49 49 50 49 49 47 47 48 46 46 45 45
56 54 54 52 51 49 51 53 51 51 51 49 49 49 48 46 46 47 46 45 45 45
57 56 55 52 52 51 51 52 51 51 50 50 50 48 47 45 46 46 45 47 46 45
55 56 55 55 54 54 51 51 52 51 50 50 49 49 47 45 46 46 45 46 45 46
55 54 55 55 55 53 52 52 51 51 50 50 50 49 48 47 51 47 45 46 45 45
53 53 52 52 53 54 53 51 51 52 51 50 50 49 49 49 49 48 48 47 45 46
53 52 52 53 53 53 53 53 52 53 53 52 51 51 50 50 48 48 48 47 47 46
53 53 52 52 52 52 52 53 53 52 53 52 52 53 50 50 48 47 47 45 48 46
53 53 51 51 50 50 50 51 51 51 53 50 54 56 56 52 49 48 47 46 45 47
53 52 51 51 50 49 48 49 49 51 50 50 50 57 57 56 50 48 47 46 46 46
53 52 51 50 49 48 47 47 48 49 49 49 51 57 57 57 52 49 46 47 46 45
53 52 51 49 48 47 47 47 48 50 49 48 50 56 57 55 51 49 47 47 46 46
54 52 50 49 48 48 47 50 50 50 49 51 50 54 56 55 51 47 47 47 48 52
53 51 51 50 49 48 47 48 46 47 49 48 51 49 55 55 51 49 47 47 47 48
MSLP
1020.04 1020.62 1021.08 1021.41 1021.68 1021.98 1022.27 1022.40 1022.56 1022.80 1023.19 1023.48 1023.73 1024.01 1024.29 1024.70 1024.91 1024.89 1025.15 1025.23 1025.30 1025.36
1019.15 1019.70 1020.05 1020.54 1020.93 1021.20 1021.35 1021.43 1021.76 1021.97 1022.29 1022.77 1023.08 1023.32 1023.65 1024.12 1024.31 1024.54 1024.60 1024.70 1024.75 1024.73
1018.02 1018.65 1019.25 1019.74 1020.04 1020.30 1020.60 1020.81 1020.98 1021.29 1021.65 1022.02 1022.34 1022.74 1023.02 1023.27 1023.43 1023.69 1023.83 1023.97 1024.15 1024.18
1017.19 1017.61 1018.23 1018.62 1018.95 1019.30 1019.70 1020.03 1020.48 1020.79 1021.15 1021.38 1021.75 1021.97 1022.45 1022.58 1022.73 1022.97 1023.17 1023.28 1023.31 1023.41
1016.25 1016.62 1017.11 1017.49 1017.96 1018.40 1018.76 1019.19 1019.88 1020.39 1020.66 1020.94 1021.10 1021.40 1021.56 1021.73 1021.90 1022.32 1022.52 1022.50 1022.66 1022.63
1015.80 1016.14 1016.50 1016.92 1017.30 1017.59 1017.84 1018.05 1018.16 1019.01 1019.65 1020.11 1020.44 1020.70 1020.80 1021.06 1021.21 1021.28 1021.46 1021.72 1021.91 1021.95
1015.35 1015.44 1015.74 1015.97 1016.44 1016.87 1017.34 1017.54 1017.54 1017.58 1018.24 1018.82 1019.28 1019.68 1019.85 1020.02 1020.36 1020.62 1020.65 1020.65 1020.65 1020.89
1014.84 1014.95 1015.14 1015.40 1015.57 1015.93 1016.41 1016.92 1017.34 1017.38 1017.27 1017.50 1018.08 1018.41 1018.80 1019.08 1019.26 1019.48 1019.69 1019.86 1019.95 1019.86
1014.62 1014.74 1014.93 1015.28 1015.33 1015.53 1015.74 1016.07 1016.60 1016.82 1016.89 1016.87 1016.72 1016.85 1017.13 1017.63 1018.07 1018.38 1018.64 1018.80 1018.88 1019.02
1014.49 1014.64 1014.90 1014.97 1015.34 1015.45 1015.63 1015.61 1015.56 1015.73 1015.87 1015.82 1015.81 1015.84 1016.11 1016.58 1017.11 1017.38 1017.46 1017.64 1017.96 1018.23
1014.03 1014.15 1014.30 1014.50 1014.57 1014.84 1014.99 1015.31 1015.43 1015.29 1015.33 1015.32 1014.97 1015.05 1015.09 1015.45 1015.95 1016.29 1016.47 1016.61 1016.65 1016.82
1013.37 1013.57 1013.72 1013.91 1014.06 1014.04 1013.93 1013.83 1013.80 1013.85 1014.03 1014.12 1013.94 1014.16 1014.27 1014.65 1014.76 1014.92 1015.13 1015.23 1015.51 1015.77
1012.73 1012.86 1013.03 1013.14 1013.28 1013.26 1013.34 1013.18 1013.14 1013.01 1012.83 1012.79 1012.71 1012.64 1012.97 1013.61 1013.93 1013.87 1013.97 1014.33 1014.39 1014.54
1011.89 1012.13 1012.25 1012.41 1012.47 1012.58 1012.74 1012.69 1012.55 1012.48 1012.15 1012.00 1011.92 1011.86 1011.85 1012.12 1012.43 1012.81 1013.12 1013.02 1013.15 1013.14
Wind_Speed
12 9 9 10 5 7 8 7 8 10 8 8 8 7 7 5 5 6 6 8 6 4
11 13 12 9 7 5 7 7 9 10 11 9 8 8 8 6 6 6 6 6 6 5
12 12 11 9 10 9 7 8 8 11 10 10 9 8 8 6 6 7 6 6 7 6
8 11 11 12 11 11 8 8 9 8 9 10 10 9 8 8 8 9 7 7 7 8
8 8 11 11 12 9 10 8 7 7 8 8 10 9 11 11 11 11 9 9 8 8
8 8 8 8 8 9 10 9 10 11 11 11 12 11 12 12 12 11 12 10 9 9
7 8 8 8 8 8 8 9 11 12 12 12 11 12 12 13 12 11 11 10 10 10
6 7 7 8 8 7 8 8 9 8 12 12 12 10 13 12 12 12 11 8 10 9
6 6 7 6 7 7 7 7 7 8 10 11 11 20 23 17 12 12 12 11 9 10
6 6 6 6 6 7 7 6 8 9 8 12 11 22 24 25 12 11 12 12 10 9
7 7 7 7 8 8 6 7 7 8 9 10 10 19 23 24 15 12 12 13 12 12
7 7 7 8 8 7 6 8 9 10 10 11 12 19 22 19 14 14 16 13 11 14
7 8 8 8 8 7 6 9 7 9 9 14 13 16 21 19 11 13 11 14 14 23
7 8 8 7 5 6 6 6 7 8 8 8 10 11 19 22 13 12 11 11 11 12
Wind_Direction
201 204 210 213 198 199 200 204 189 199 199 199 200 207 205 205 215 211 220 222 221 222
204 204 211 212 208 198 202 202 196 195 197 198 203 197 193 197 211 218 221 225 222 216
206 209 208 204 210 208 206 202 198 196 194 196 203 200 194 197 202 210 220 217 219 227
203 202 203 210 210 210 199 202 205 196 194 196 197 200 201 202 201 215 219 226 215 222
202 195 203 211 208 202 202 197 197 204 204 207 207 205 205 209 213 214 217 219 221 222
210 203 205 208 209 200 201 196 190 195 208 209 213 210 215 216 214 212 214 216 218 223
216 207 204 204 210 205 206 210 206 203 204 209 210 215 214 214 216 220 222 216 211 212
221 210 204 210 210 208 203 216 223 214 210 205 208 213 217 216 213 216 220 220 222 215
218 219 215 222 209 210 213 214 219 223 223 215 219 220 219 210 215 212 215 221 221 221
218 217 219 211 220 228 229 227 223 225 223 228 221 222 224 222 216 214 215 218 217 217
211 215 215 213 212 216 213 222 230 234 230 237 237 231 225 224 225 222 220 219 212 208
212 216 213 221 224 220 212 214 217 226 224 227 238 234 231 223 223 223 225 221 213 211
214 211 217 219 221 217 219 230 224 236 227 230 239 224 227 225 228 228 222 226 227 223
216 216 221 229 225 227 230 237 234 239 243 234 233 233 226 224 220 229 228 226 224 219